Weather History for PABV - October, 2013

Change the Weather History Date:

Thursday, October 31, 2013

  Actual Average Record
Temperature  
Mean Temperature 72 °F -  
Max Temperature 75 °F 29 °F 75 °F (2013)
Min Temperature 69 °F 20 °F 3 °F (2001)
Cooling Degree Days 7    
Growing Degree Days 22 (Base 50)    
Moisture  
Dew Point 70 °F    
Average Humidity 93    
Maximum Humidity 100    
Minimum Humidity 83    
Precipitation  
Precipitation 0.07 in - - ()
Sea Level Pressure  
Sea Level Pressure 29.37 in    
Wind  
Wind Speed 1 mph (SSW)    
Max Wind Speed 8 mph    
Max Gust Speed -    
Visibility 10 miles    
Events      
Averages and records for this station are not official NWS values.
T = Trace of Precipitation, MM = Missing Value Source: NWS Daily Summary

Daily Weather History Graph

Daily Weather History Graph

Search for Another Location

Airport or City:

Trip Planner

Search our weather history database for the weather conditions in past years. The results will help you decide how hot, cold, wet, or windy it might be!

Date:

Astronomy

Oct. 31, 2013 Rise Set
Actual Time 9:25 AM AKDT 5:56 PM AKDT
Civil Twilight 8:37 AM AKDT 6:44 PM AKDT
Nautical Twilight 7:46 AM AKDT 7:35 PM AKDT
Astronomical Twilight 6:55 AM AKDT 8:26 PM AKDT
Moon 5:39 AM AKDT (10/31) 4:58 PM AKDT (10/31)
Length of Visible Light 10h 06m
Length of Day
8h 31m
Waning Crescent, 9% of the Moon is Illuminated
Oct 31
Waning Crescent
Nov 3
New
Nov 9
First Quarter
Nov 17
Full
Nov 25
Last Quarter

Hourly Weather History & Observations

Time (AKDT) Temp. Dew Point Humidity Pressure Visibility Wind Dir Wind Speed Gust Speed Precip Events Conditions
12:16 AM 75.2 °F 71.6 °F 89% 29.17 in 10.0 mi Calm Calm - N/A   Overcast
12:36 AM 69.8 °F 66.2 °F 88% 29.18 in 10.0 mi South 3.5 mph - N/A   Overcast
12:56 AM 69.8 °F 66.2 °F 88% 29.19 in 10.0 mi SSW 4.6 mph - N/A   Overcast
1:16 AM 71.6 °F 69.8 °F 94% 29.19 in 10.0 mi South 4.6 mph - N/A   Overcast
1:36 AM 73.4 °F 69.8 °F 88% 29.19 in 10.0 mi SSE 3.5 mph - N/A   Overcast
1:56 AM 73.4 °F 71.6 °F 94% 29.20 in 10.0 mi Calm Calm - N/A   Overcast
2:16 AM 73.4 °F 71.6 °F 94% 29.21 in 10.0 mi Calm Calm - N/A   Overcast
2:36 AM 73.4 °F 71.6 °F 94% 29.21 in 10.0 mi Calm Calm - N/A   Overcast
2:56 AM 75.2 °F 69.8 °F 83% 29.22 in 10.0 mi South 3.5 mph - N/A   Overcast
3:16 AM 75.2 °F 71.6 °F 89% 29.22 in 10.0 mi SW 3.5 mph - N/A   Overcast
3:36 AM 73.4 °F 69.8 °F 88% 29.23 in 10.0 mi WSW 3.5 mph - N/A   Overcast
3:56 AM 73.4 °F 71.6 °F 94% 29.23 in 10.0 mi South 3.5 mph - N/A   Overcast
4:16 AM 73.4 °F 71.6 °F 94% 29.23 in 10.0 mi Calm Calm - N/A   Overcast
4:36 AM 71.6 °F 69.8 °F 94% 29.23 in 10.0 mi Calm Calm - N/A   Overcast
4:56 AM 71.6 °F 69.8 °F 94% 29.24 in 10.0 mi Calm Calm - N/A   Overcast
5:16 AM 71.6 °F 69.8 °F 94% 29.24 in 10.0 mi Calm Calm - N/A   Overcast
5:36 AM 71.6 °F 71.6 °F 100% 29.25 in 10.0 mi Calm Calm - N/A   Overcast
5:56 AM 73.4 °F 71.6 °F 94% 29.25 in 10.0 mi Calm Calm - N/A   Overcast
6:16 AM 71.6 °F 71.6 °F 100% 29.26 in 10.0 mi Calm Calm - N/A   Overcast
6:36 AM 71.6 °F 71.6 °F 100% 29.26 in 10.0 mi Calm Calm - N/A   Overcast
6:56 AM 71.6 °F 71.6 °F 100% 29.27 in 10.0 mi Calm Calm - N/A   Overcast
7:16 AM 71.6 °F 68.0 °F 88% 29.28 in 10.0 mi Calm Calm - N/A   Overcast
7:36 AM 71.6 °F 69.8 °F 94% 29.28 in 10.0 mi Calm Calm - N/A   Overcast
7:56 AM 71.6 °F 69.8 °F 94% 29.29 in 10.0 mi Calm Calm - N/A   Overcast
8:16 AM 71.6 °F 71.6 °F 100% 29.29 in 10.0 mi Calm Calm - N/A   Overcast
8:36 AM 71.6 °F 69.8 °F 94% 29.30 in 9.0 mi Calm Calm - N/A   Overcast
8:56 AM 69.8 °F 68.0 °F 94% 29.30 in 10.0 mi Calm Calm - N/A   Overcast
9:16 AM - - N/A% 29.30 in 8.0 mi NE 3.5 mph - 0.02 in   Overcast
9:36 AM - - N/A% 29.31 in 10.0 mi Calm Calm - 0.02 in   Overcast
9:56 AM - - N/A% 29.32 in 10.0 mi Calm Calm - 0.02 in   Overcast
10:16 AM - - N/A% 29.32 in 9.0 mi Calm Calm - N/A   Overcast
10:36 AM - - N/A% 29.33 in 9.0 mi Calm Calm - N/A   Overcast
10:56 AM - - N/A% 29.34 in 10.0 mi Calm Calm - N/A   Overcast
11:16 AM - - N/A% 29.34 in 10.0 mi Calm Calm - N/A   Overcast
11:36 AM - - N/A% 29.35 in 10.0 mi Calm Calm - N/A   Overcast
11:56 AM - - N/A% 29.36 in 10.0 mi Calm Calm - N/A   Overcast
12:16 PM - - N/A% 29.36 in 10.0 mi Calm Calm - N/A   Overcast
12:36 PM - - N/A% 29.37 in 10.0 mi Calm Calm - N/A   Overcast
12:56 PM - - N/A% 29.38 in 5.0 mi Calm Calm - 0.01 in   Overcast
1:16 PM - - N/A% 29.39 in 10.0 mi Calm Calm - 0.01 in   Overcast
1:36 PM - - N/A% 29.39 in 10.0 mi Calm Calm - 0.02 in   Overcast
1:56 PM - - N/A% 29.40 in 10.0 mi Calm Calm - 0.03 in   Overcast
2:16 PM - - N/A% 29.40 in 10.0 mi Calm Calm - 0.01 in   Overcast
2:36 PM - - N/A% 29.41 in 10.0 mi SW 3.5 mph - 0.01 in   Overcast
2:56 PM - - N/A% 29.41 in 10.0 mi SSW 6.9 mph - 0.01 in   Overcast
3:16 PM - - N/A% 29.41 in 10.0 mi SW 8.1 mph - N/A   Overcast
3:36 PM - - N/A% 29.42 in 10.0 mi SW 8.1 mph - N/A   Overcast
3:56 PM - - N/A% 29.43 in 10.0 mi SW 4.6 mph - N/A   Overcast
4:16 PM - - N/A% 29.44 in 10.0 mi SSW 6.9 mph - N/A   Overcast
4:36 PM - - N/A% 29.44 in 10.0 mi SSW 5.8 mph - N/A   Overcast
4:56 PM - - N/A% 29.45 in 10.0 mi SW 3.5 mph - N/A   Overcast
5:16 PM - - N/A% 29.46 in 10.0 mi Calm Calm - N/A   Overcast
5:36 PM - - N/A% 29.46 in 10.0 mi Calm Calm - N/A   Overcast
5:56 PM - - N/A% 29.47 in 10.0 mi Calm Calm - N/A   Overcast
6:16 PM - - N/A% 29.48 in 10.0 mi Calm Calm - N/A   Overcast
6:36 PM - - N/A% 29.48 in 10.0 mi Calm Calm - N/A   Overcast
6:56 PM - - N/A% 29.49 in 10.0 mi Calm Calm - N/A   Overcast
7:16 PM - - N/A% 29.50 in 10.0 mi Calm Calm - N/A   Overcast
7:36 PM - - N/A% 29.51 in 10.0 mi Calm Calm - N/A   Overcast
7:56 PM - - N/A% 29.51 in 10.0 mi Calm Calm - N/A   Overcast
8:16 PM - - N/A% 29.52 in 10.0 mi Calm Calm - N/A   Overcast
8:36 PM - - N/A% 29.53 in 10.0 mi Calm Calm - N/A   Overcast
8:56 PM - - N/A% 29.54 in 10.0 mi Calm Calm - N/A   Overcast
9:16 PM - - N/A% 29.55 in 10.0 mi Calm Calm - N/A   Overcast
9:36 PM - - N/A% 29.55 in 10.0 mi Calm Calm - N/A   Overcast
9:56 PM - - N/A% 29.56 in 10.0 mi Calm Calm - N/A   Overcast
10:16 PM - - N/A% 29.57 in 10.0 mi Calm Calm - N/A   Overcast
10:36 PM - - N/A% 29.58 in 10.0 mi Calm Calm - N/A   Overcast
10:56 PM - - N/A% 29.59 in 10.0 mi Calm Calm - N/A   Overcast
11:16 PM - - N/A% 29.60 in 10.0 mi Calm Calm - N/A   Overcast
11:36 PM - - N/A% 29.61 in 10.0 mi Calm Calm - N/A   Overcast
11:56 PM - - N/A% 29.62 in 10.0 mi Calm Calm - N/A   Overcast